Powrót do katalogu

DELTA 1 DEB

AktywnyLEO
NORAD 7181·DEBRIS·🇺🇸 United States

Wystrzelony Nov 6, 1973 z Vandenberg Space Force Base

Loading…

Następne Przeloty (najbliższe 24 godziny)

TLE

ŚwieżeSource: Space-Track

Epoka: Sep 14, 2026, 08:34 UTC

1 07181U 73086ES  26257.35758804  .00000163  00000-0  12488-2 0  9998
2 07181 102.4020  40.7291 0102878 292.7672  93.5560 12.57259664421622

Śledź DELTA 1 DEB w czasie rzeczywistym z AllMySat

Download on the App Store